Dewpoint
72 72 70 70 72 72 72 72 72 72 73 73 73 73 73 73 74 73 72 71 72 72 71 71 71 72 73 73 72 72 72 72 71 72 72 72 72 73 74 75 75 75 75 76 76 76 75 74 73 73 73 74 75 75 75 75 75 75 74 74 74 75 75 75 75 75 74 74 74 74 74 74 74 74 74 74 75 75 74 74 74 74 74 74 74
71 71 70 69 69 71 72 71 71 71 71 72 73 73 72 72 72 71 72 71 71 71 72 70 72 72 73 71 71 71 72 72 72 72 71 71 71 71 73 74 75 75 75 75 76 74 75 74 74 74 73 73 73 73 75 75 75 74 74 74 74 74 74 74 74 74 74 73 74 73 73 73 74 73 74 74 74 74 74 74 74 74 74 74 74
69 70 70 69 68 70 70 71 70 70 70 71 72 72 72 71 71 70 70 71 71 73 71 71 72 72 73 73 71 72 72 71 71 71 71 71 71 71 71 73 74 75 76 76 75 75 75 75 75 74 73 73 73 74 74 75 75 75 75 75 75 74 74 73 73 73 74 74 74 73 73 73 73 74 74 74 74 74 74 74 74 74 74 74 74
71 68 69 69 69 69 69 70 70 70 70 70 71 72 71 70 70 69 70 70 71 73 73 72 71 71 71 71 70 71 71 70 70 70 70 70 70 71 71 72 73 74 75 75 76 76 75 75 75 74 73 74 74 75 74 74 75 75 75 75 74 74 74 73 73 73 73 73 73 73 73 73 73 73 74 74 74 74 74 74 74 74 74 74 74
74 73 72 69 69 68 68 69 69 69 69 69 69 70 70 69 68 70 71 71 71 71 73 72 70 70 70 70 70 71 71 71 70 69 69 69 70 70 70 71 73 74 75 76 77 77 75 75 75 74 75 74 75 74 75 75 74 74 75 74 73 73 73 73 73 73 73 73 73 74 73 73 73 73 74 74 74 74 74 74 74 74 74 74 74
75 74 72 70 70 70 69 68 67 69 71 70 69 69 68 67 67 70 72 70 68 70 72 72 71 71 70 70 70 70 69 69 69 69 69 70 71 71 71 71 73 73 72 75 76 76 74 74 76 76 75 74 74 74 75 75 75 74 75 73 73 73 72 73 72 72 72 73 74 74 74 73 73 73 73 73 74 74 74 74 74 74 74 74 74
75 75 74 72 70 70 70 69 69 74 72 71 68 71 70 70 70 69 71 70 69 71 69 70 70 70 69 71 70 70 71 70 70 70 70 71 72 72 72 72 74 72 73 75 77 74 72 72 74 75 75 75 74 74 74 75 73 74 75 74 73 72 72 72 72 72 72 73 73 74 74 74 73 74 74 73 74 74 74 74 74 74 74 74 74
75 73 72 73 72 72 71 70 74 74 74 75 73 68 70 72 72 70 70 68 69 68 69 68 69 70 70 71 72 72 71 71 70 71 71 72 72 72 72 72 73 72 73 71 71 74 74 74 74 75 75 74 74 74 74 74 73 74 74 74 73 73 73 73 72 72 73 73 73 73 74 74 74 74 73 74 73 74 74 74 74 74 74 74 74
74 75 72 72 72 72 72 70 73 72 71 71 72 74 68 70 73 76 70 69 68 68 68 68 69 68 69 70 71 72 72 72 71 71 73 73 73 73 73 71 72 74 74 72 72 73 74 74 75 75 75 75 75 74 74 73 73 74 73 72 73 74 74 74 74 73 73 73 73 72 74 74 74 74 73 74 73 73 74 74 74 74 74 74 74
74 74 73 73 74 73 72 72 72 71 69 69 68 71 70 70 70 73 74 72 71 69 67 67 67 68 69 69 71 71 70 71 72 74 74 74 73 73 73 73 74 74 74 74 73 73 73 74 74 75 75 75 74 74 74 74 74 73 72 72 72 73 73 73 73 73 73 73 73 73 73 74 74 74 73 73 73 73 73 74 74 74 74 74 74
73 74 73 73 73 73 73 72 74 72 70 69 69 71 73 73 72 73 76 73 71 71 71 69 68 68 67 68 68 69 71 72 73 73 74 75 74 74 75 73 74 74 74 74 74 73 73 74 74 73 74 75 75 75 74 74 73 72 73 73 73 74 74 74 73 73 74 74 74 73 74 74 74 74 74 74 73 73 73 74 74 74 74 74 74
73 73 72 74 74 74 73 73 73 73 71 69 69 69 69 71 73 72 72 73 74 73 72 71 71 71 72 72 70 71 73 74 74 74 75 75 74 75 74 74 74 74 74 74 74 74 73 73 74 73 74 74 74 75 74 74 73 73 73 73 74 73 74 74 73 73 74 73 73 73 73 74 74 74 74 74 74 74 74 74 74 74 74 74 74
74 73 73 74 74 74 73 74 74 73 73 70 70 71 73 74 75 76 72 70 71 73 72 70 70 69 71 72 72 72 73 74 73 74 74 73 74 73 74 73 73 74 74 74 74 74 73 72 72 72 72 72 73 75 73 73 74 74 74 74 75 75 75 75 74 74 74 74 73 73 73 73 75 74 74 74 74 74 74 74 74 74 74 74 74
75 74 74 73 73 73 72 72 74 74 75 77 74 80 75 73 72 69 73 70 70 73 73 69 67 66 66 67 70 69 72 72 70 71 70 72 74 74 75 74 75 74 74 73 73 73 73 72 72 72 72 72 73 74 73 73 73 75 75 75 74 74 74 74 74 74 74 73 74 74 74 74 74 74 74 74 74 74 74 74 74 73 74 74 74
74 75 74 73 73 72 72 72 74 76 73 71 73 73 73 72 71 69 68 71 73 72 70 69 65 70 70 68 65 64 68 68 71 71 71 72 73 75 75 75 74 74 73 73 72 72 74 73 72 72 72 72 73 74 75 75 74 75 74 74 74 74 74 75 74 74 74 74 73 74 74 74 74 74 74 74 74 74 74 74 73 73 73 74 74
73 74 73 73 73 72 72 72 72 74 73 71 72 72 72 72 71 72 70 68 70 69 73 72 69 70 65 66 66 64 62 63 66 68 70 72 71 71 72 72 73 73 73 71 73 72 72 73 73 72 73 73 73 74 75 74 76 74 75 74 74 74 74 74 74 74 73 74 73 73 74 74 74 74 73 73 74 74 73 73 73 73 73 73 73
73 73 74 73 73 72 72 71 72 72 74 72 72 72 72 71 71 71 72 69 69 70 73 72 70 71 68 65 62 62 63 64 67 67 70 71 72 71 73 73 73 73 72 72 72 73 73 74 73 74 74 74 74 74 74 75 74 76 74 74 74 74 73 73 74 73 73 73 72 73 73 74 74 74 73 73 73 73 73 73 73 73 73 73 73
73 73 73 73 72 72 72 72 72 73 74 72 72 72 72 71 71 70 71 71 69 71 70 72 72 75 72 65 65 62 63 66 66 64 69 71 71 70 71 72 72 72 71 71 72 72 74 75 73 72 73 73 74 74 73 74 76 74 73 74 74 73 73 74 74 73 73 73 73 73 73 74 73 73 73 73 73 73 73 73 73 73 73 73 73
72 72 72 74 73 72 72 72 72 73 75 73 73 72 71 71 71 70 70 72 72 69 70 70 72 72 73 74 73 72 68 67 65 66 64 66 69 69 69 72 72 72 72 72 73 73 73 74 73 73 72 73 72 73 73 75 76 74 75 75 74 73 73 72 72 72 73 72 73 73 73 73 73 73 73 73 73 73 73 73 73 73 73 73 73
72 72 72 72 73 72 72 71 70 73 74 73 72 73 73 72 74 71 71 74 72 70 71 70 69 70 73 70 71 73 70 70 69 67 65 63 66 70 71 71 71 71 72 73 74 74 73 73 73 73 73 73 73 73 73 74 74 75 75 74 73 73 72 72 71 71 72 72 72 73 73 73 73 72 72 72 72 72 73 73 73 72 72 73 72
72 72 72 71 73 72 71 70 69 70 75 73 72 72 72 71 71 73 75 74 73 72 69 69 71 69 70 68 71 70 70 70 71 70 67 66 66 66 67 70 70 71 72 73 74 74 74 74 74 74 73 72 72 73 74 74 74 74 75 74 73 73 72 72 71 72 72 72 73 72 72 72 72 72 72 72 72 72 72 72 73 73 73 73 72
72 73 73 72 72 72 71 70 69 68 73 72 71 71 71 71 71 71 72 73 74 75 72 72 73 72 71 69 69 71 69 69 69 69 69 67 64 65 67 67 67 69 72 73 73 74 74 73 73 73 73 72 72 73 73 74 74 74 73 73 73 72 72 71 72 72 72 72 72 73 72 72 72 72 72 71 71 71 71 72 72 72 72 72 72
73 73 72 71 71 72 71 70 70 71 72 71 71 70 70 70 69 70 72 73 73 74 73 73 72 73 72 70 69 69 67 66 67 69 68 67 66 67 68 69 68 68 70 73 73 73 73 73 72 72 72 72 72 73 73 74 75 74 74 73 72 72 72 71 71 71 72 72 73 73 72 72 72 72 71 71 71 71 71 71 71 71 71 71 71
73 73 72 72 72 71 72 71 71 70 70 70 69 69 69 69 69 70 70 71 73 74 72 71 71 72 72 71 70 70 69 69 69 68 69 69 67 66 67 68 70 70 72 72 74 73 73 72 73 73 74 73 73 73 75 75 75 75 73 73 72 72 71 70 70 70 70 72 72 73 72 72 72 72 71 71 71 71 71 70 70 69 69 70 71
73 73 72 71 71 71 71 70 70 71 71 70 70 70 69 69 68 68 69 70 72 72 71 71 70 69 69 70 70 70 70 70 70 70 70 69 70 67 69 70 67 68 70 71 72 73 72 72 73 73 73 73 74 73 74 75 75 75 74 74 73 72 71 71 70 70 70 70 69 69 69 69 69 69 69 69 69 68 68 69 69 69 69 69 71
73 73 72 71 70 71 71 71 71 70 71 70 70 70 69 68 68 68 69 70 71 71 71 70 70 70 70 70 69 69 69 69 70 70 69 71 69 69 68 69 70 69 69 70 71 71 71 71 73 73 74 74 74 74 75 74 75 75 75 74 73 73 72 71 71 70 70 70 70 69 69 69 69 69 69 69 68 68 69 70 70 69 69 70 70
73 73 73 72 71 70 70 71 71 71 72 71 70 70 70 70 69 68 69 69 71 71 71 70 70 71 71 70 70 69 68 69 70 69 70 69 68 67 68 66 66 68 69 68 70 71 70 71 73 73 73 74 74 74 75 75 76 75 75 74 73 73 73 73 72 71 70 70 70 69 69 70 69 69 69 69 69 69 69 70 70 70 70 70 70
73 73 72 72 71 70 70 71 71 71 71 72 71 70 70 69 68 68 68 70 69 71 71 71 70 70 69 68 68 67 68 68 69 69 68 68 68 69 70 67 63 63 67 67 67 68 72 71 72 74 74 74 75 75 76 76 76 75 75 73 73 73 73 73 73 73 72 70 70 70 69 69 69 69 69 70 70 69 69 69 70 71 71 71 71
72 73 72 72 71 71 70 70 71 71 70 71 71 71 71 70 69 68 68 68 70 69 69 69 69 68 66 63 63 64 64 66 68 69 68 69 69 70 71 68 67 65 64 65 64 67 69 72 69 71 74 73 73 75 76 75 76 76 75 74 73 73 72 72 73 73 73 73 72 73 70 70 70 69 69 69 69 69 69 69 70 72 72 72 73
72 72 72 71 71 73 71 70 70 70 70 69 70 70 71 70 70 70 69 70 70 71 71 69 67 66 66 65 64 63 63 67 66 66 68 69 70 72 72 71 70 67 67 65 64 68 68 71 72 71 72 73 75 75 75 75 77 75 75 75 74 73 72 72 73 73 73 73 73 73 71 69 70 70 69 69 69 68 69 69 70 71 72 72 72
72 72 72 71 71 71 71 71 71 70 70 69 69 70 70 70 70 70 70 71 70 69 69 70 69 69 67 65 65 65 65 65 66 66 68 71 71 72 72 72 72 70 69 66 65 68 71 68 70 72 72 73 75 75 75 75 76 76 75 74 74 74 73 74 74 73 72 72 72 72 73 71 70 70 70 70 69 69 69 69 70 70 71 72 72
71 71 71 71 71 70 70 71 70 70 70 69 69 69 70 70 70 70 70 71 70 69 69 69 69 68 67 65 65 65 64 66 66 66 70 71 71 72 72 72 72 72 71 68 67 67 71 70 70 71 73 73 74 74 74 75 75 75 75 74 75 74 73 71 71 72 72 72 72 71 71 71 72 72 71 70 69 69 69 69 69 70 71 71 72
71 71 71 71 71 71 71 71 70 70 70 70 69 69 70 70 70 71 70 71 70 70 70 69 69 68 67 66 65 67 68 66 64 64 66 70 72 72 72 72 72 72 72 70 69 69 70 71 71 71 73 74 72 74 74 74 74 74 74 74 73 71 70 69 69 69 70 71 71 71 70 71 72 72 72 71 70 70 69 69 70 70 71 72 72
73 71 71 71 71 71 71 71 71 70 70 70 69 69 69 70 70 70 70 70 70 70 70 70 69 68 67 67 66 67 68 67 66 65 63 66 70 70 71 72 72 72 73 71 70 69 68 70 69 72 72 73 72 73 73 73 73 74 72 71 70 68 68 67 67 67 68 68 69 69 69 69 70 70 72 73 74 73 74 74 74 73 73 72 71
72 71 70 70 71 71 70 70 71 70 70 70 69 69 69 69 69 69 69 69 69 69 70 70 69 69 68 67 66 66 68 67 66 65 65 67 69 68 69 72 71 72 73 72 71 70 70 69 70 70 71 72 71 72 73 74 73 73 71 69 68 68 67 66 66 66 67 67 66 66 66 67 67 68 68 68 69 69 69 69 68 67 68 67 67
72 72 72 71 70 71 71 70 70 70 69 70 70 69 69 69 69 70 70 70 69 69 69 69 69 68 67 67 66 66 67 67 66 66 66 68 67 68 67 69 71 71 73 73 72 70 70 70 69 70 72 70 71 72 73 73 72 71 69 68 67 65 65 65 65 64 65 65 65 64 64 64 64 64 65 65 66 65 64 63 64 64 64 64 64
73 73 73 73 72 72 71 71 71 70 71 71 70 70 70 69 69 70 70 70 69 69 68 69 71 69 68 67 67 67 67 67 67 66 66 67 67 68 68 68 70 70 72 73 73 71 70 70 70 72 71 70 70 72 72 70 70 69 68 66 66 65 64 64 65 64 64 64 63 63 63 63 62 62 62 62 62 62 62 62 61 61 61 61 61
72 73 72 73 73 72 71 72 71 70 71 71 70 69 69 70 69 70 70 70 69 69 69 68 68 69 69 68 68 67 67 67 66 66 68 67 67 68 68 68 70 71 70 71 72 72 71 70 70 70 70 69 69 71 72 71 68 67 66 66 65 65 65 64 64 64 64 63 62 61 61 61 62 61 61 61 61 61 61 61 60 60 59 59 59
71 70 72 72 71 72 72 71 71 71 71 71 70 70 69 69 69 69 69 69 69 69 69 69 68 68 68 68 68 68 67 67 66 66 66 68 70 69 68 68 69 70 70 70 72 73 71 70 69 70 69 69 68 68 70 72 70 67 65 65 65 65 64 62 62 62 63 62 63 63 62 62 62 61 61 61 61 60 60 60 60 60 59 58 58
72 71 73 73 72 72 71 71 72 72 71 70 70 70 70 71 71 69 68 68 68 68 68 68 68 68 67 67 67 67 68 68 67 67 67 68 71 70 69 69 69 69 68 69 71 71 71 70 69 69 67 67 68 69 71 71 69 68 67 65 63 63 62 63 62 62 63 63 62 61 61 61 60 60 60 60 60 60 60 60 61 60 60 59 58
72 72 73 73 73 73 73 72 72 72 71 70 70 70 71 71 71 70 70 69 68 68 68 68 68 68 68 68 68 68 70 73 74 73 73 73 69 69 71 72 70 69 68 69 71 71 70 69 67 67 67 67 67 67 69 69 68 68 68 65 64 63 62 62 63 64 63 61 60 59 59 59 58 58 58 58 59 58 59 59 60 60 59 59 58
72 71 71 72 72 73 73 72 72 72 71 71 72 73 73 72 71 71 71 71 71 69 69 68 67 68 68 68 70 73 75 76 77 77 76 76 75 69 68 72 72 70 70 71 71 70 70 69 68 68 67 67 67 67 68 70 70 70 67 65 63 63 63 62 63 64 62 59 58 58 58 58 57 57 57 57 57 58 58 57 57 57 58 58 58
71 72 73 72 71 72 72 72 72 73 73 73 74 71 71 73 72 71 70 71 71 71 71 70 69 70 71 71 72 73 75 78 77 77 77 76 76 75 75 77 75 71 71 72 72 71 70 69 68 68 68 67 67 69 68 69 70 69 67 65 63 63 62 61 60 61 61 59 58 57 57 58 57 56 56 56 57 57 57 57 58 57 57 57 57
69 70 70 71 72 72 72 72 72 72 73 74 71 70 69 69 72 72 71 70 70 70 71 71 70 70 70 70 72 74 75 75 75 74 76 78 76 76 75 77 78 77 75 72 70 71 70 70 68 68 68 68 68 69 69 69 69 69 67 65 64 63 62 62 60 59 61 59 57 56 56 57 57 56 56 56 57 57 57 57 57 57 57 57 56
69 68 68 68 69 70 72 71 71 72 72 73 69 69 68 68 69 72 71 70 71 71 71 70 69 69 70 71 72 74 74 75 76 73 73 74 77 77 77 77 79 78 73 73 74 72 72 71 69 69 69 69 67 68 70 70 71 69 67 65 64 63 63 62 61 60 60 59 57 56 55 56 56 55 55 56 56 56 56 57 57 57 56 56 56
67 67 68 67 68 68 70 71 72 72 71 68 66 67 66 67 67 70 70 71 71 71 71 70 69 69 71 72 72 72 72 73 72 71 71 71 71 71 72 72 73 76 78 75 75 76 75 71 70 69 69 69 69 69 71 71 70 69 67 66 65 64 64 63 62 60 59 59 57 55 54 55 55 55 54 55 56 56 56 56 56 56 56 56 56
66 66 66 66 67 69 68 69 70 68 66 63 63 64 64 64 66 70 70 72 71 72 71 70 70 71 72 73 71 70 71 71 73 72 71 70 70 71 70 70 71 72 72 74 75 76 76 73 71 71 70 70 70 70 71 72 70 70 69 68 66 66 64 61 60 60 58 59 57 56 53 54 55 54 54 54 55 55 55 56 56 56 56 56 56
65 66 66 66 67 67 69 69 69 66 65 61 61 62 62 62 65 71 71 71 70 71 71 70 71 71 71 71 70 70 71 71 75 74 74 71 69 69 70 71 71 71 71 73 69 71 72 70 71 72 73 73 72 72 72 70 70 69 70 68 67 63 62 60 59 59 58 59 59 56 53 53 54 53 53 54 55 55 55 56 56 56 56 56 56
64 64 65 66 67 68 69 67 66 65 65 61 59 60 60 61 67 69 70 71 70 70 71 72 72 72 72 71 71 72 72 71 73 69 70 74 70 70 69 69 69 69 70 70 66 66 65 64 64 65 65 66 66 65 66 67 69 69 68 66 65 64 62 60 59 58 58 59 59 56 54 53 53 54 53 54 54 54 55 56 57 56 56 55 55
63 64 65 65 66 67 68 67 66 64 63 61 58 57 57 59 66 69 70 69 69 69 69 70 70 70 71 72 73 71 71 71 69 64 65 71 70 70 69 69 68 68 69 69 69 68 64 63 63 64 64 65 66 66 66 66 65 68 68 66 65 64 63 61 59 58 59 59 60 56 55 54 55 55 55 55 57 56 56 57 57 56 56 55 55
63 64 66 64 65 66 67 67 68 65 64 63 58 56 56 58 63 66 68 70 69 69 69 69 69 69 69 72 72 71 70 70 62 62 63 69 70 69 69 68 69 69 69 68 68 66 66 67 67 68 69 70 69 68 69 68 68 70 69 68 66 65 64 63 61 59 57 58 60 59 55 54 55 56 55 53 52 55 57 57 56 56 57 56 56